Regional Weather Roundup
Issued by NWS Upton, NY

Current Version | Previous Version | Text Only | Print | Product List | Glossary On
Versions: 1 2 3 4 5 6 7 8 9 10 11 12 13 14 15 16 17 18 19 20 21 22 23 24 25 26 27 28 29 30 31 32 33 34 35 36 37 38 39 40 41 42 43 44 45 46 47 48 49 50
000
ASUS41 KOKX 301308
RWROKX

REGIONAL WEATHER ROUNDUP
NATIONAL WEATHER SERVICE NEW YORK NY
900 AM EDT THU MAR 30 2017

NOTE: "FAIR" INDICATES FEW OR NO CLOUDS BELOW 12,000 FEET WITH NO
SIGNIFICANT WEATHER AND/OR OBSTRUCTIONS TO VISIBILITY.

NYZ071-072-176-178-NJZ106-104-301400-
NEW YORK CITY METRO AREA

CITY           SKY/WX    TMP DP  RH WIND       PRES   REMARKS
Central Park   MOSUNNY   41  21  44 N10G17    30.28F
Wall St Helipt CLOUDY    45  27  49 NE12      30.27F
LaGuardia APRT PTSUNNY   42  22  44 NE14G20   30.26S
Kennedy INTL   MOSUNNY   43  22  43 N14       30.27S
Breezy Point     N/A     39 N/A N/A NE12G20     N/A  WCI  32
Newark/Liberty CLOUDY    42  22  44 N16       30.26F
Teterboro      PTSUNNY   41  24  51 NE8       30.26F
$$

NYZ177-179-078>081-301400-
LONG ISLAND NEW YORK

CITY           SKY/WX    TMP DP  RH WIND       PRES   REMARKS
Jones Beach      N/A     37 N/A N/A N15         N/A  WCI  28
Matinecock PT    N/A     41 N/A N/A NE12        N/A
Farmingdale    SUNNY     41  21  44 N15G24    30.25F
MacArthur/ISP  MOSUNNY   41  23  48 N13G21    30.25F
Shirley        SUNNY     40  24  53 N12       30.26F WCI  33
Westhampton    SUNNY     40  24  53 N9        30.26F WCI  34
East Hampton     N/A     39  22  51 N10       30.25F WCI  32
Montauk          N/A     40  26  57 NW9       30.26R WCI  34
$$

NYZ052-065-067-301400-
HUDSON VALLEY

CITY           SKY/WX    TMP DP  RH WIND       PRES   REMARKS
White Plains   SUNNY     39  22  50 N12       30.24F WCI  32
Newburgh       MOSUNNY   37  25  60 CALM      30.27F
Montgomery     MOSUNNY   38  26  62 NE6       30.25F WCI  33
Poughkeepsie   MOSUNNY   37  23  56 N9        30.27F WCI  30
Albany         MOSUNNY   38  21  50 N6        30.30S WCI  33
$$

NJZ001-105-106-008-010-013-015-019>022-104-301400-
NEW JERSEY

CITY           SKY/WX    TMP DP  RH WIND       PRES   REMARKS
Newark/Liberty CLOUDY    42  22  44 N16       30.26F
Teterboro      PTSUNNY   41  24  51 NE8       30.26F
Caldwell       MOSUNNY   40  23  50 NE5       30.27F
Somerville     PTSUNNY   39  26  59 VRB5      30.27R
Linden           N/A     43  21  41 E8        30.27S
Sussex         MOSUNNY   36  28  73 CALM      30.25F
Andover          N/A     36  23  59 VRB3      30.25F
Trenton        PTSUNNY   39  27  62 N6        30.27F WCI  35
Millville      CLOUDY    42  25  50 NE9       30.29R
Atlantic City  MOSUNNY   41  26  55 NE6       30.28R
Wrightstown    CLOUDY    40  26  58 N5        30.26R
Toms River     CLOUDY    40  26  57 N7        30.28S
Belmar         CLOUDY    41  25  53 CALM      30.28R
$$

PAZ047>061-062-071-301400-
EASTERN PENNSYLVANIA

CITY           SKY/WX    TMP DP  RH WIND       PRES   REMARKS
Philadelphia   CLOUDY    43  23  45 VRB6      30.30R
Allentown      CLOUDY    40  25  55 W3        30.28S
Scranton       CLOUDY    36  24  62 CALM      30.24S
$$

CTZ002-004>006-009-010-012-RIZ004-006-007-MAZ004-011-015-301400-
SOUTHERN NEW ENGLAND
 IN CT

CITY           SKY/WX    TMP DP  RH WIND       PRES   REMARKS
Bradley INTL   PTSUNNY   39  19  44 N12       30.26S WCI  32
Hartford       SUNNY     39  20  46 NW10      30.26S WCI  32
Danbury        MOSUNNY   38  21  50 N10       30.26F WCI  31
Wtrbury/Oxford MOSUNNY   36  19  51 N12G18    30.24F WCI  27
Bridgeport     SUNNY     42  21  43 N12       30.26F
Meriden        SUNNY     40  21  46 N13       30.25F WCI  32
New Haven      PTSUNNY   39  21  48 N10       30.25F WCI  32
Chester        NOT AVBL
Groton         SUNNY     40  21  46 N14G24    30.24S WCI  32
Wilimantic     SUNNY     39  22  50 N8        30.26R WCI  33

 IN RI

CITY           SKY/WX    TMP DP  RH WIND       PRES   REMARKS
Providence     MOSUNNY   39  18  42 N16G25    30.24R WCI  30
Block Island   SUNNY     38  24  57 N13       30.24  WCI  30
Westerly       SUNNY     40  22  48 NW12G20   30.24S WCI  33
 IN MA

CITY           SKY/WX    TMP DP  RH WIND       PRES   REMARKS
Boston         MOSUNNY   38  20  48 NW13G22   30.23R WCI  30
Worcester      SUNNY     33  15  47 N12G20    30.20R WCI  24
Westfield      SUNNY     38  19  46 N12       30.25S WCI  30
Provincetown   PTSUNNY   38  25  59 N13       30.21R WCI  30
Nantucket      SUNNY     41  24  51 N21       30.18R
$$

ANZ330-335-338-340-345-350-353-355-301400-
COASTAL MARINE OBSERVATIONS


STATION/POSITION TIME  SKY/WX   TEMP    WIND        PRES    VSBY  WAVE
                                AIR SEA DIR/SP/G                  HT/PER
                 (UTC)          (F)     (DEG/KT/KT) (MB)    (MI)  (FT/S)
NY HARB ENTRANCE 1150            40 42   10/ 16/ 19 1024.7          3/ 9
20 S FIRE ISLAND 1150            39 41  360/ 16/ 19 1024.3          4/ 8
GREAT SOUTH BAY  NOT AVBL
23 SSW MONTAUK P 1150            38 42              1024.2          3/ 8
15 E BARNEGAT LI 1230               44                N/A           5/ 6
HUDSON CANYON    1150            42 43   20/ 16/ 17 1023.9          5/ 6
KINGS POINT      1224            39 41              1025.0
EXECUTION ROCKS  NOT AVBL
CENTRAL LI SOUND 1215            37     340/ 10/ 14   N/A           1
EASTERN LI SOUND NOT AVBL
ROBBINS REEF     1224            40      10/ 12/ 14 1025.3
$$


>>>>>>>>>>>>>>>>>>>>>>>>>>>> KEY <<<<<<<<<<<<<<<<<<<<<<<<<<<
>                                                          <
>     SKY/WX - Sky Condition/Present Weather               <
>     TMP    - Temperature in Fahrenheit                   <
>     DP     - Dew Point in Fahrenheit                     <
>     RH     - Relative Humidity in Percent                <
>     WIND   - Direction (from) and Speed in MPH           <
>     PRES   - Mean Sea Level Pressure (inches of Hg)      <
>     WCI    - Wind Chill Index                            <
>     VSB    - VISIBILITY IN MILES                         <
>     HX     - HEAT INDEX                                  <
>     TC     - TEMPERATURE IN CELSIUS                      <
>     VRB    - VARIABLE WIND DIRECTION                     <
>                                                          <
>>>>>>>>>>>>>>>>>>>>>>>>>>>> KEY <<<<<<<<<<<<<<<<<<<<<<<<<<<



USA.gov is the U.S. government's official web portal to all federal, state and local government web resources and services.